Capitol Logistics 333


KHRL
Valley International Airport
Harlingen, Texas, US
KAUS
Austin-Bergstrom International Airport
Austin, Texas, US

Activity Log

Date Flight Route Aircraft Duration
11/30/2018 CPX339 CRP HOOLR DXEEE1 B752 1h 01m

Route Details

Aircraft Information
Primary: Boeing 767-300BDSF
Backup: Not Available
Route Data
Distance: 273nm
Sched. Duration: 1h 00m
Avg. Duration: 1h 01m (+1m)
Times Flown: 1
Recm'd Route: CRP PCKIT
Planned Altitude: 28,000ft
Origin Wx: KHRL 060552Z AUTO 04005KT 10SM CLR 23/23 A2988 RMK AO2 SLP118 T02330228 10300 20233 403280228 50002
Dest. Wx: KAUS 060553Z 17004KT 10SM CLR 24/22 A2994 RMK AO2 SLP128 T02440222 10322 20239 403390239 50006
Notes:

Financial History
Total Freight: 58,189lbs
Average Load: 58,189lbs/flt
Fuel Used: 8,263lbs
Avg. Fuel Used: 8,263lbs/flt
Fuel Expense: $5,206
Avg. Fuel Expense: $5,206
Avg. Fuel Cost: $0.63/lbs
Total Gross Income: $72,154
Pilot Pay: $149
Total Expenses: $7,845
Total Revenue: $58,861
Average Revenue: $72,154.40